Location: Shepherdstown, WV
(39.4326°N, 77.8042°W)
Time: 12:46:35
(UTC-04:00)

Tiros 1 - All Passes

Search period start: 28 July 2021 00:00
Search period end: 07 August 2021 00:00
Orbit: 630 x 663 km, 48.4° (Epoch: 27 July)

Date Brightness Start Highest point End Pass type
(mag) Time Alt. Az. Time Alt. Az. Time Alt. Az.
28 Jul - 01:18:20 10° NW 01:22:46 40° NNE 01:27:09 10° E visible
28 Jul - 03:00:32 10° WNW 03:05:06 56° SW 03:09:37 10° SE visible
28 Jul - 18:54:50 10° S 18:58:28 22° SE 19:02:06 10° E daylight
28 Jul - 20:35:31 10° WSW 20:40:18 79° NNW 20:45:03 10° ENE daylight
28 Jul - 22:18:46 10° WNW 22:23:00 31° NNW 22:27:11 10° NE visible
29 Jul - 00:02:01 10° NW 00:06:08 29° N 00:10:14 10° ENE visible
29 Jul - 01:44:15 10° NW 01:48:56 68° NNE 01:53:32 10° ESE visible
29 Jul - 03:26:59 10° W 03:30:48 25° SW 03:34:35 10° S night (unlit)
29 Jul - 19:19:33 10° SW 19:24:08 48° SE 19:28:43 10° ENE daylight
29 Jul - 21:01:49 10° W 21:06:23 45° NNW 21:10:57 10° NE visible
29 Jul - 22:45:22 10° WNW 22:49:24 27° N 22:53:25 10° ENE visible
30 Jul - 00:28:03 10° NW 00:32:28 39° NNE 00:36:51 10° E visible
30 Jul - 02:10:15 10° WNW 02:14:52 61° SW 02:19:26 10° SE visible
30 Jul - 03:55:35 10° WSW 03:56:17 10° SW 03:57:00 10° SW night (unlit)
30 Jul - 18:04:47 10° S 18:08:15 20° SE 18:11:42 10° E daylight
30 Jul - 19:45:14 10° WSW 19:50:01 84° NW 19:54:47 10° ENE daylight
30 Jul - 21:28:25 10° WNW 21:32:41 32° NNW 21:36:55 10° NE visible
30 Jul - 23:11:43 10° NW 23:15:50 29° N 23:19:55 10° ENE visible
31 Jul - 00:53:59 10° NW 00:58:39 64° NNE 01:03:16 10° ESE visible
31 Jul - 02:36:38 10° WNW 02:40:35 28° SW 02:44:30 10° SSE night (unlit)
31 Jul - 18:29:22 10° SSW 18:33:54 44° SE 18:38:25 10° ENE daylight
31 Jul - 20:11:29 10° W 20:16:06 48° NNW 20:20:42 10° NE daylight
31 Jul - 21:55:01 10° WNW 21:59:05 27° N 22:03:07 10° NE visible
31 Jul - 23:37:47 10° NW 23:42:11 37° NNE 23:46:33 10° E visible
01 Aug - 01:19:57 10° WNW 01:24:38 67° SW 01:29:13 10° SE visible
01 Aug - 03:04:30 10° WSW 03:06:05 12° SW 03:07:42 10° SSW night (unlit)
01 Aug - 17:14:46 10° S 17:18:01 18° SE 17:21:17 10° E daylight
01 Aug - 18:54:57 10° WSW 18:59:45 90° NNW 19:04:32 10° ENE daylight
01 Aug - 20:38:03 10° WNW 20:42:22 33° NNW 20:46:39 10° NE daylight
01 Aug - 22:21:24 10° NW 22:25:31 28° N 22:29:36 10° ENE visible
02 Aug - 00:03:43 10° NW 00:08:23 60° NNE 00:12:59 10° ESE visible
02 Aug - 01:46:17 10° WNW 01:50:22 30° SW 01:54:25 10° SSE visible
02 Aug - 17:39:10 10° SSW 17:43:38 40° SE 17:48:07 10° ENE daylight
02 Aug - 19:21:09 10° W 19:25:48 50° NNW 19:30:27 10° NE daylight
02 Aug - 21:04:40 10° WNW 21:08:46 28° N 21:12:50 10° NE visible
02 Aug - 22:47:30 10° NW 22:51:53 36° NNE 22:56:13 10° E visible
03 Aug - 00:29:40 10° WNW 00:34:22 72° SW 00:39:00 10° SE visible
03 Aug - 02:13:46 10° WSW 02:15:54 13° SW 02:18:01 10° SSW night (unlit)
03 Aug - 16:24:46 10° S 16:27:48 17° SE 16:30:49 10° E daylight
03 Aug - 18:04:40 10° SW 18:09:28 85° SSE 18:14:16 10° ENE daylight
03 Aug - 19:47:42 10° W 19:52:04 34° NNW 19:56:23 10° NE daylight
03 Aug - 21:31:05 10° NW 21:35:12 28° N 21:39:17 10° ENE visible
03 Aug - 23:13:26 10° NW 23:18:06 56° NNE 23:22:42 10° ESE visible
04 Aug - 00:55:56 10° WNW 01:00:08 33° SW 01:04:18 10° SSE visible
04 Aug - 16:48:59 10° SSW 16:53:24 37° SE 16:57:48 10° ENE daylight
04 Aug - 18:30:49 10° WSW 18:35:31 53° NNW 18:40:12 10° NE daylight
04 Aug - 20:14:19 10° WNW 20:18:27 28° N 20:22:33 10° NE daylight
04 Aug - 21:57:13 10° NW 22:01:35 35° NNE 22:05:54 10° E visible
04 Aug - 23:39:23 10° WNW 23:44:07 78° SW 23:48:47 10° SE visible
05 Aug - 01:23:10 10° W 01:25:41 14° SW 01:28:12 10° SSW visible
05 Aug - 15:34:50 10° SSE 15:37:35 15° SE 15:40:20 10° E daylight
05 Aug - 17:14:24 10° SW 17:19:12 79° SSE 17:24:00 10° ENE daylight
05 Aug - 18:57:20 10° W 19:01:45 35° NNW 19:06:08 10° NE daylight
05 Aug - 20:40:46 10° NW 20:44:53 28° N 20:48:58 10° ENE visible
05 Aug - 22:23:09 10° NW 22:27:49 53° NNE 22:32:24 10° ESE visible
06 Aug - 00:05:36 10° WNW 00:09:55 36° SW 00:14:10 10° SSE visible
06 Aug - 15:58:50 10° SSW 16:03:09 34° SE 16:07:29 10° ENE daylight
06 Aug - 17:40:29 10° WSW 17:45:13 57° NNW 17:49:57 10° NE daylight
06 Aug - 19:23:59 10° WNW 19:28:08 28° N 19:32:15 10° NE daylight
06 Aug - 21:06:55 10° NW 21:11:16 34° NNE 21:15:35 10° E visible
06 Aug - 22:49:06 10° WNW 22:53:51 84° SW 22:58:32 10° SE visible
